{"data":{"norad_id":69860,"intl_designator":"2026-155N","name":"QIANFAN-231","alt_names":[],"object_type":"PAYLOAD","status":"ACTIVE","operator":null,"country":"PRC","launch_date":"2026-07-05","launch_site_code":"WSC","launch_vehicle":null,"mission":null,"orbit_class":"UNKNOWN","rcs_meters":null,"size_class":null,"mass_kg":null,"dimensions":null,"purposes":[],"wikipedia_slug":null,"has_3d_model":false,"image_url":null,"decayed_at":null,"tle_current":{"epoch":"2026-09-19T21:40:16.862016Z","epoch_age_seconds":73212,"freshness":"FRESH","line1":"1 69860U 26155N   26262.90297294  .00000045  00000+0  45820-4 0  9999","line2":"2 69860  89.0087  53.7512 0036827   8.9579 351.2225 13.57849306 10669","mean_motion":13.57849306,"eccentricity":0.0036827,"inclination_deg":89.0087,"raan_deg":53.7512,"arg_perigee_deg":8.9579,"mean_anomaly_deg":351.2225,"bstar":4.582e-5,"rev_number":1066,"period_min":106.05005972585,"perigee_km":1016.186773502,"apogee_km":1070.8502349528,"semimajor_km":7421.6555042274,"source":"CELESTRAK","updated_at":"2026-09-20T09:00:25.159511Z"}}}